Weather History for KMDH - July, 2013

Change the Weather History Date:

Saturday, July 20, 2013

  Actual Average Record
Temperature  
Mean Temperature 80 °F -  
Max Temperature 91 °F 90 °F 104 °F (1934)
Min Temperature 69 °F 67 °F 52 °F (1947)
Cooling Degree Days 15    
Growing Degree Days 30 (Base 50)    
Moisture  
Dew Point 70 °F    
Average Humidity 79    
Maximum Humidity 100    
Minimum Humidity 55    
Precipitation  
Precipitation 1.08 in - - ()
Sea Level Pressure  
Sea Level Pressure 29.91 in    
Wind  
Wind Speed 6 mph (South)    
Max Wind Speed 14 mph    
Max Gust Speed 21 mph    
Visibility 8 miles    
Events Rain , Thunderstorm    
Averages and records for this station are not official NWS values.
T = Trace of Precipitation, MM = Missing Value Source: NWS Daily Summary

Daily Weather History Graph

Daily Weather History Graph

Search for Another Location

Airport or City:

Trip Planner

Search our weather history database for the weather conditions in past years. The results will help you decide how hot, cold, wet, or windy it might be!

Date:

Astronomy

Jul. 20, 2013 Rise Set
Actual Time 5:50 AM CDT 8:15 PM CDT
Civil Twilight 5:20 AM CDT 8:45 PM CDT
Nautical Twilight 4:43 AM CDT 9:22 PM CDT
Astronomical Twilight 4:02 AM CDT 10:03 PM CDT
Moon 6:19 PM CDT (7/20) 3:30 AM CDT (7/20)
Length of Visible Light 15h 24m
Length of Day
14h 24m
Waxing Gibbous, 94% of the Moon is Illuminated
Jul 20
Waxing Gibbous
Jul 22
Full
Jul 29
Last Quarter
Aug 6
New
Aug 14
First Quarter

Hourly Weather History & Observations

Time (CDT) Temp. Heat Index Dew Point Humidity Pressure Visibility Wind Dir Wind Speed Gust Speed Precip Events Conditions
12:52 AM 73.9 °F - 70.0 °F 87% 29.93 in 10.0 mi South 4.6 mph - N/A   Clear
1:52 AM 73.0 °F - 69.1 °F 87% 29.92 in 10.0 mi South 6.9 mph - N/A   Clear
2:52 AM 73.0 °F - 69.1 °F 87% 29.91 in 10.0 mi South 4.6 mph - N/A   Clear
3:52 AM 72.0 °F - 68.0 °F 87% 29.91 in 10.0 mi Calm Calm - N/A   Clear
4:52 AM 71.1 °F - 68.0 °F 90% 29.91 in 10.0 mi Calm Calm - N/A   Clear
5:52 AM 71.1 °F - 69.1 °F 93% 29.92 in 8.0 mi South 5.8 mph - N/A   Clear
6:52 AM 73.9 °F - 71.1 °F 91% 29.92 in 9.0 mi SSW 6.9 mph - N/A   Clear
7:52 AM 78.1 °F - 72.0 °F 81% 29.92 in 10.0 mi SW 5.8 mph - N/A   Clear
8:52 AM 82.0 °F 86.7 °F 72.0 °F 71% 29.91 in 10.0 mi SW 10.4 mph - N/A   Clear
9:52 AM 84.9 °F 90.7 °F 72.0 °F 65% 29.91 in 10.0 mi SW 9.2 mph - N/A   Clear
10:52 AM 86.0 °F 93.0 °F 73.0 °F 65% 29.91 in 10.0 mi SSW 11.5 mph - N/A   Clear
11:52 AM 89.1 °F 97.0 °F 73.0 °F 59% 29.90 in 10.0 mi SSW 9.2 mph - N/A   Clear
12:52 PM 90.0 °F 99.0 °F 73.9 °F 59% 29.89 in 10.0 mi South 10.4 mph - N/A   Clear
1:52 PM 91.0 °F 100.4 °F 73.9 °F 57% 29.87 in 10.0 mi SSW 13.8 mph - N/A   Clear
2:52 PM 91.0 °F 100.4 °F 73.9 °F 57% 29.84 in 10.0 mi South 10.4 mph - N/A   Partly Cloudy
3:52 PM 91.0 °F 99.3 °F 73.0 °F 55% 29.80 in 10.0 mi South 12.7 mph 20.7 mph N/A   Clear
4:52 PM 87.1 °F 93.6 °F 72.0 °F 61% 29.83 in 10.0 mi SW 10.4 mph - N/A   Clear
5:52 PM 82.0 °F 85.9 °F 70.0 °F 67% 29.86 in 10.0 mi WNW 3.5 mph - N/A   Mostly Cloudy
6:06 PM 80.6 °F 83.9 °F 69.8 °F 70% 29.87 in 10.0 mi Calm Calm - N/A Thunderstorm Mostly Cloudy
6:21 PM 80.6 °F 84.6 °F 71.6 °F 74% 29.88 in 10.0 mi Calm Calm - N/A   Mostly Cloudy
6:34 PM 80.6 °F 83.9 °F 69.8 °F 70% 29.89 in 10.0 mi West 6.9 mph - N/A Thunderstorm Mostly Cloudy
6:52 PM 80.1 °F 82.9 °F 69.1 °F 69% 29.90 in 10.0 mi North 5.8 mph - N/A Thunderstorm Mostly Cloudy
7:29 PM 75.2 °F - 69.8 °F 83% 29.94 in 10.0 mi NE 11.5 mph 20.7 mph N/A Thunderstorm Thunderstorm
8:14 PM 71.6 °F - 69.8 °F 94% 29.95 in 1.2 mi NNE 9.2 mph 18.4 mph 0.04 in Rain Heavy Rain
8:21 PM 71.6 °F - 69.8 °F 94% 29.97 in 1.0 mi NE 11.5 mph - 0.07 in Rain , Thunderstorm Heavy Thunderstorms and Rain
8:37 PM 69.8 °F - 68.0 °F 94% 29.97 in 2.5 mi ENE 6.9 mph - 0.35 in Rain , Thunderstorm Light Thunderstorms and Rain
8:44 PM 69.8 °F - 68.0 °F 94% 29.97 in 3.0 mi ESE 4.6 mph - 0.51 in Rain , Thunderstorm Light Thunderstorms and Rain
8:52 PM 70.0 °F - 68.0 °F 93% 29.95 in 2.5 mi Calm Calm - 0.68 in Rain , Thunderstorm Thunderstorms and Rain
8:59 PM 69.8 °F - 68.0 °F 94% 29.96 in 4.0 mi Calm Calm - 0.12 in Rain , Thunderstorm Light Thunderstorms and Rain
9:12 PM 69.8 °F - 69.8 °F 100% 29.96 in 10.0 mi ESE 5.8 mph - 0.31 in Rain , Thunderstorm Light Thunderstorms and Rain
9:37 PM 71.6 °F - 68.0 °F 88% 29.95 in 10.0 mi SE 9.2 mph - 0.40 in Rain Light Rain
9:52 PM 71.1 °F - 69.1 °F 93% 29.92 in 10.0 mi South 9.2 mph - 0.40 in   Mostly Cloudy
11:52 PM 71.1 °F - 69.1 °F 93% 29.90 in 10.0 mi SSW 4.6 mph - N/A   Clear